DMSP 5D-2 F13 DEB, 42281

Orbit data source: Space-Track

DMSP 5D-2 F13 DEB, 42281 is space debris in SSO originally from a launch on Fri, 24 Mar 1995 UTC launched from the Air Force Western Test Range (AFWTR). Debris objects in space refer to the collection of defunct objects orbiting the Earth. Examples of debris include non-operational satellites, rocket bodies, and fragments generated from explosions, collisions, or faulty payload assembly.

Loading next visibility...
Identifier
42281, 1995-015GX
Orbit
SSO
Country
Flag of USUS
Related business
Manufacturer
Unknown
Mission
Spacecraft
Bus & Motor
Unknown
Mass
Unknown
Launch date (UTC)
1995-03-24 (31 years ago)
Launch vehicle
Unknown
Launch site
Air Force Western Test Range (AFWTR)
Object type
Payload
Rocket body
Debris
Shape & HBR
Unknown shape, 0.1 m
Radar Cross Section
Small (<0.1 m²)

Expand to show TLE details & history
Last TLE update: 2 days ago

TLE from 2 days ago
0 DMSP 5D-2 F13 DEB
1 42281U 95015GX  26033.61419021  .00011873  00000-0  24437-2 0  9997
2 42281  98.5516  96.9325 0027815 101.5667 258.8657 14.60447584564140
Epoch: 2026-02-02T14:44Z
TLE epoch observation values (Epoch: 2026-02-02T14:44:26.034Z)
Latitude
-0.00002°
Longitude
103.01708°
Altitude
698.555 km
Speed
7.505 km/s
True Right ascension
06h 27m 43s
True Declination
0° 00' 00"
Sunlit
Object was in full shadow at epoch
Visualization orbit readout
Latitude
Unknown
Longitude
Unknown
Altitude
Unknown
Speed
Unknown
Apparent Right ascension
Unknown
Apparent Declination
Unknown
Sunlit
N/A
Visualization observer readout
Local Sidereal Time
22:30:59
Azimuth
Unknown
Elevation
Unknown
Doppler factor
Unknown
Orbital elements
Apogee altitude
708.483 km
Perigee altitude
669.169 km
Semi-major axis
7,066.963 km
Eccentricity
0.00278
Inclination
98.5516°
RAAN
96.9325°
Arg. of periapsis
101.5667°
True anomaly
258.55317°
Mean anomaly
258.8657°
Eccentric anomaly
258.70942°
Mean motion
3.65337 °/min
Orbital period
98.54 mins
BSTAR
0.0024437
Loading maneuver chart data...
Computing Atmospheric mass density...

Documentation

Showing up to 5 results
|